EXS5AE LGKR-EGNT

Flight info

Callsign EXS5AE
Flight time N/A
Altitude 36000
Route OLGAT DCT CRAYE DCT GISAM DCT RILIM DCT SAL DCT MINTU DCT LOS DCT RASUG DCT SOTOV DCT KPT L608 KUNOD DCT LIRSU DCT ARCKY DCT BUB DCT DENUT L610 NILON DCT WESUL M14 STOAT L613 MOGLI/N0389F280 L613 MAMUL UY250 RIMTO
Aircraft B738/M-SDE2E3FGHIRWXY/LB1

Departure

Time 2026-05-06 16:55
Airport Corfu Ioannis Kapodistrias International Airport (LGKR)

Arrival

Time N/A
Airport Newcastle International Airport (EGNT)
Time Latitude Longitude Altitude Speed Heading
2026-05-06 16:30 39.60628 19.91360 19 ft 0 kts 80°
2026-05-06 16:48 39.60627 19.91355 21 ft 4 kts 79°
2026-05-06 16:48 39.60621 19.91321 20 ft 4 kts 67°
2026-05-06 16:48 39.60608 19.91293 21 ft 4 kts 32°
2026-05-06 16:49 39.60592 19.91288 21 ft 1 kts 320°
2026-05-06 16:49 39.60592 19.91289 21 ft 1 kts 320°
2026-05-06 16:51 39.60592 19.91288 21 ft 0 kts 320°
2026-05-06 16:51 39.60600 19.91262 21 ft 0 kts 284°
2026-05-06 16:51 39.60585 19.91210 19 ft 13 kts 233°
2026-05-06 16:52 39.60471 19.91147 18 ft 21 kts 182°
2026-05-06 16:52 39.60313 19.91182 22 ft 25 kts 169°
2026-05-06 16:52 39.60134 19.91229 23 ft 28 kts 168°
2026-05-06 16:52 39.59940 19.91280 25 ft 28 kts 168°
2026-05-06 16:53 39.59752 19.91328 21 ft 28 kts 169°
2026-05-06 16:53 39.59558 19.91378 18 ft 29 kts 169°
2026-05-06 16:53 39.59368 19.91427 16 ft 27 kts 168°
2026-05-06 16:53 39.59229 19.91465 15 ft 5 kts 160°
2026-05-06 16:54 39.59204 19.91489 15 ft 5 kts 136°
2026-05-06 16:54 39.59167 19.91513 14 ft 7 kts 177°
2026-05-06 16:54 39.59168 19.91471 14 ft 7 kts 343°
2026-05-06 16:54 39.59213 19.91467 15 ft 6 kts 352°
2026-05-06 16:55 39.59327 19.91438 14 ft 46 kts 348°
2026-05-06 16:55 39.59880 19.91296 24 ft 114 kts 348°
2026-05-06 16:55 39.60864 19.91039 27 ft 171 kts 348°
2026-05-06 16:55 39.62103 19.90744 646 ft 176 kts 349°
2026-05-06 16:56 39.63296 19.90464 1464 ft 177 kts 350°
2026-05-06 16:56 39.64528 19.90063 2068 ft 193 kts 335°
2026-05-06 16:56 39.65706 19.88995 2420 ft 217 kts 309°
2026-05-06 16:56 39.66212 19.87212 2934 ft 219 kts 264°
2026-05-06 16:57 39.66070 19.85201 3555 ft 225 kts 268°
2026-05-06 16:57 39.66110 19.83166 4350 ft 226 kts 268°
2026-05-06 16:57 39.66102 19.81060 4937 ft 240 kts 267°
2026-05-06 16:57 39.66289 19.78873 5571 ft 253 kts 290°
2026-05-06 16:58 39.67342 19.76945 6076 ft 272 kts 312°
2026-05-06 16:58 39.68695 19.75176 6739 ft 277 kts 313°
2026-05-06 16:58 39.70057 19.73411 7034 ft 277 kts 313°
2026-05-06 16:58 39.71426 19.71622 7062 ft 281 kts 313°
2026-05-06 16:59 39.72804 19.69802 7274 ft 284 kts 312°
2026-05-06 16:59 39.74184 19.67963 8126 ft 281 kts 312°
2026-05-06 16:59 39.75538 19.66149 9095 ft 279 kts 311°
2026-05-06 16:59 39.76885 19.64337 9965 ft 280 kts 311°
2026-05-06 17:00 39.78256 19.62487 10544 ft 291 kts 311°
2026-05-06 17:00 39.79667 19.60575 10707 ft 315 kts 311°
2026-05-06 17:00 39.81150 19.58567 10945 ft 333 kts 311°
2026-05-06 17:00 39.82780 19.56362 11501 ft 342 kts 311°
2026-05-06 17:01 39.84434 19.54123 12224 ft 344 kts 311°
2026-05-06 17:01 39.86099 19.51873 12979 ft 347 kts 312°
2026-05-06 17:01 39.87789 19.49606 13670 ft 351 kts 312°
2026-05-06 17:01 39.89484 19.47335 14293 ft 356 kts 312°
2026-05-06 17:02 39.91220 19.45010 14882 ft 360 kts 311°
2026-05-06 17:02 39.92969 19.42664 15586 ft 361 kts 311°
2026-05-06 17:02 39.94744 19.40281 16301 ft 362 kts 311°
2026-05-06 17:02 39.96504 19.37915 16939 ft 365 kts 311°
2026-05-06 17:03 39.98256 19.35557 17508 ft 369 kts 311°
2026-05-06 17:03 40.00071 19.33111 18111 ft 373 kts 311°
2026-05-06 17:03 40.01858 19.30702 18667 ft 375 kts 311°
2026-05-06 17:03 40.03701 19.28215 19205 ft 378 kts 311°
2026-05-06 17:04 40.05539 19.25732 19744 ft 380 kts 311°
2026-05-06 17:04 40.07382 19.23242 20259 ft 383 kts 311°
2026-05-06 17:04 40.09240 19.20728 20772 ft 386 kts 311°
2026-05-06 17:04 40.11112 19.18192 21273 ft 389 kts 311°
2026-05-06 17:05 40.12973 19.15671 21756 ft 392 kts 311°
2026-05-06 17:05 40.14870 19.13098 22246 ft 395 kts 311°
2026-05-06 17:05 40.16779 19.10506 22717 ft 397 kts 311°
2026-05-06 17:05 40.18725 19.07862 23249 ft 399 kts 311°
2026-05-06 17:06 40.20629 19.05274 23729 ft 400 kts 311°
2026-05-06 17:06 40.22564 19.02641 24122 ft 403 kts 311°
2026-05-06 17:06 40.24562 19.00055 24520 ft 406 kts 319°
2026-05-06 17:06 40.26996 18.98124 24909 ft 412 kts 330°
2026-05-06 17:07 40.29559 18.96444 25351 ft 412 kts 330°
2026-05-06 17:07 40.32125 18.94752 25735 ft 414 kts 330°
2026-05-06 17:07 40.34700 18.93038 26108 ft 416 kts 330°
2026-05-06 17:07 40.37317 18.91282 26489 ft 417 kts 330°
2026-05-06 17:08 40.39906 18.89532 26874 ft 419 kts 330°
2026-05-06 17:08 40.42496 18.87773 27257 ft 420 kts 329°
2026-05-06 17:08 40.45093 18.86003 27630 ft 421 kts 329°
2026-05-06 17:08 40.47695 18.84227 27971 ft 422 kts 329°
2026-05-06 17:09 40.50308 18.82441 28303 ft 424 kts 329°
2026-05-06 17:09 40.52932 18.80646 28637 ft 426 kts 329°
2026-05-06 17:09 40.55566 18.78842 28964 ft 427 kts 330°
2026-05-06 17:09 40.58206 18.77033 29292 ft 429 kts 330°
2026-05-06 17:10 40.60842 18.75226 29633 ft 429 kts 330°
2026-05-06 17:10 40.63495 18.73405 29987 ft 430 kts 330°
2026-05-06 17:10 40.66141 18.71588 30389 ft 428 kts 329°
2026-05-06 17:10 40.68768 18.69783 30771 ft 426 kts 329°
2026-05-06 17:11 40.71388 18.67981 31132 ft 424 kts 329°
2026-05-06 17:11 40.74002 18.66181 31464 ft 423 kts 329°
2026-05-06 17:11 40.76611 18.64382 31806 ft 422 kts 328°
2026-05-06 17:11 40.79207 18.62590 32179 ft 420 kts 328°
2026-05-06 17:12 40.81785 18.60811 32544 ft 418 kts 328°
2026-05-06 17:12 40.84363 18.59028 32878 ft 417 kts 328°
2026-05-06 17:12 40.86929 18.57254 33197 ft 416 kts 328°
2026-05-06 17:12 40.89486 18.55483 33552 ft 414 kts 327°
2026-05-06 17:13 40.92032 18.53718 33817 ft 414 kts 327°
2026-05-06 17:13 40.93722 18.52545 33980 ft 414 kts 327°
2026-05-06 17:13 40.96270 18.50777 34253 ft 413 kts 327°
2026-05-06 17:13 40.98817 18.49007 34517 ft 412 kts 327°
2026-05-06 17:14 41.01352 18.47245 34741 ft 412 kts 327°
2026-05-06 17:14 41.03885 18.45482 34955 ft 412 kts 327°
2026-05-06 17:14 41.06421 18.43716 35159 ft 412 kts 327°
2026-05-06 17:14 41.08962 18.41943 35327 ft 413 kts 327°
2026-05-06 17:15 41.11512 18.40162 35370 ft 417 kts 327°
2026-05-06 17:15 41.14089 18.38362 35589 ft 417 kts 327°
2026-05-06 17:15 41.16644 18.36577 35908 ft 414 kts 327°
2026-05-06 17:15 41.19196 18.34794 36015 ft 416 kts 327°
2026-05-06 17:16 41.21761 18.32996 36033 ft 417 kts 327°
2026-05-06 17:16 41.26872 18.29414 36028 ft 413 kts 327°
2026-05-06 17:17 41.31935 18.25859 36030 ft 410 kts 327°
2026-05-06 17:17 41.36968 18.22316 36032 ft 408 kts 327°
2026-05-06 17:18 41.41981 18.18781 36034 ft 407 kts 327°
2026-05-06 17:18 41.46981 18.15250 36026 ft 407 kts 327°
2026-05-06 17:19 41.51928 18.11566 36024 ft 406 kts 322°
2026-05-06 17:19 41.56630 18.07406 36024 ft 407 kts 321°
2026-05-06 17:20 41.61338 18.03171 36032 ft 409 kts 321°
2026-05-06 17:20 41.66081 17.98938 36019 ft 410 kts 321°
2026-05-06 17:21 41.70838 17.94708 36025 ft 411 kts 321°
2026-05-06 17:21 41.75608 17.90463 36023 ft 411 kts 321°
2026-05-06 17:22 41.80367 17.86221 36013 ft 411 kts 321°
2026-05-06 17:22 41.85120 17.81974 36023 ft 409 kts 321°
2026-05-06 17:23 41.89846 17.77745 36009 ft 407 kts 321°
2026-05-06 17:23 41.94266 17.73117 36021 ft 399 kts 312°
2026-05-06 17:24 41.98290 17.67998 36018 ft 397 kts 311°
2026-05-06 17:24 42.02294 17.62889 36016 ft 397 kts 311°
2026-05-06 17:25 42.06314 17.57793 36008 ft 397 kts 311°
2026-05-06 17:25 42.10344 17.52700 36018 ft 398 kts 311°
2026-05-06 17:26 42.14377 17.47599 36010 ft 398 kts 311°
2026-05-06 17:26 42.18416 17.42483 36005 ft 398 kts 311°
2026-05-06 17:27 42.22449 17.37365 36007 ft 399 kts 311°
2026-05-06 17:27 42.26486 17.32230 36002 ft 399 kts 310°
2026-05-06 17:28 42.30526 17.27084 36000 ft 400 kts 310°
2026-05-06 17:28 42.34570 17.21922 36005 ft 400 kts 310°
2026-05-06 17:29 42.38614 17.16751 35996 ft 400 kts 310°
2026-05-06 17:29 42.42653 17.11576 35997 ft 400 kts 310°
2026-05-06 17:30 42.46689 17.06397 36000 ft 399 kts 310°
2026-05-06 17:30 42.50716 17.01218 35996 ft 399 kts 309°
2026-05-06 17:31 42.54749 16.96021 35997 ft 400 kts 309°
2026-05-06 17:31 42.58780 16.90817 35999 ft 400 kts 309°
2026-05-06 17:32 42.62814 16.85601 35989 ft 401 kts 309°
2026-05-06 17:32 42.66857 16.80375 35999 ft 401 kts 310°
2026-05-06 17:33 42.70961 16.75221 35989 ft 402 kts 310°
2026-05-06 17:33 42.75086 16.70075 35989 ft 402 kts 310°
2026-05-06 17:34 42.79209 16.64910 36001 ft 403 kts 309°
2026-05-06 17:34 42.83328 16.59730 35980 ft 403 kts 309°
2026-05-06 17:35 42.87449 16.54531 35996 ft 404 kts 309°
2026-05-06 17:35 42.91572 16.49319 35987 ft 404 kts 309°
2026-05-06 17:36 42.97757 16.41483 35990 ft 404 kts 309°
2026-05-06 17:36 43.01878 16.36250 35991 ft 405 kts 309°
2026-05-06 17:37 43.06004 16.30999 36000 ft 406 kts 309°
2026-05-06 17:37 43.10138 16.25726 35991 ft 407 kts 309°
2026-05-06 17:38 43.14285 16.20429 35985 ft 408 kts 309°
2026-05-06 17:38 43.18440 16.15111 35987 ft 410 kts 309°
2026-05-06 17:39 43.22609 16.09764 35988 ft 411 kts 309°
2026-05-06 17:39 43.26787 16.04397 35984 ft 412 kts 309°
2026-05-06 17:40 43.30965 15.99017 36010 ft 412 kts 310°
2026-05-06 17:40 43.35152 15.93615 35990 ft 414 kts 310°
2026-05-06 17:41 43.39350 15.88190 35975 ft 414 kts 310°
2026-05-06 17:41 43.43549 15.82751 35976 ft 415 kts 310°
2026-05-06 17:42 43.47766 15.77279 35964 ft 415 kts 309°
2026-05-06 17:42 43.51964 15.71820 35964 ft 415 kts 309°
2026-05-06 17:43 43.56163 15.66348 35972 ft 416 kts 310°
2026-05-06 17:43 43.60368 15.60858 35964 ft 416 kts 309°
2026-05-06 17:44 43.64572 15.55358 35974 ft 416 kts 309°
2026-05-06 17:44 43.68773 15.49850 35970 ft 416 kts 309°
2026-05-06 17:45 43.72975 15.44330 35967 ft 417 kts 309°
2026-05-06 17:45 43.77174 15.38803 35968 ft 417 kts 309°
2026-05-06 17:46 43.81373 15.33263 35974 ft 417 kts 309°
2026-05-06 17:46 43.85561 15.27728 35989 ft 417 kts 309°
2026-05-06 17:47 43.89732 15.22202 35984 ft 417 kts 309°
2026-05-06 17:47 43.93933 15.16641 35976 ft 418 kts 310°
2026-05-06 17:48 43.98357 15.11346 35977 ft 421 kts 313°
2026-05-06 17:48 44.02882 15.06157 35978 ft 422 kts 313°
2026-05-06 17:49 44.07391 15.00939 35967 ft 422 kts 312°
2026-05-06 17:49 44.11884 14.95684 35956 ft 422 kts 312°
2026-05-06 17:50 44.16376 14.90407 35955 ft 423 kts 312°
2026-05-06 17:50 44.20147 14.85969 35955 ft 423 kts 312°
2026-05-06 17:51 44.24647 14.80664 35957 ft 424 kts 312°
2026-05-06 17:51 44.29159 14.75334 35959 ft 425 kts 312°
2026-05-06 17:52 44.33681 14.69982 35950 ft 426 kts 312°
2026-05-06 17:52 44.38201 14.64615 35954 ft 427 kts 312°
2026-05-06 17:53 44.42721 14.59229 35951 ft 427 kts 312°
2026-05-06 17:53 44.47240 14.53834 35946 ft 427 kts 313°
2026-05-06 17:54 44.51763 14.48426 35958 ft 428 kts 313°
2026-05-06 17:54 44.56212 14.42882 35962 ft 427 kts 311°
2026-05-06 17:55 44.60536 14.37166 35955 ft 428 kts 310°
2026-05-06 17:55 44.64865 14.31425 35952 ft 429 kts 310°
2026-05-06 17:56 44.69213 14.25689 35950 ft 430 kts 311°
2026-05-06 17:56 44.73583 14.19933 35950 ft 430 kts 311°
2026-05-06 17:57 44.77961 14.14159 35979 ft 431 kts 310°
2026-05-06 17:57 44.82345 14.08366 35960 ft 432 kts 310°